www.pogodaiklimat.ru

Погода и климат >> Архив погоды >> Россия >> Якутия >> Жиганск


АРХИВ ПОГОДЫ в Жиганске

Время (UTC), дата Ветер
(напр.,м/с)
 
Видим.   Явления Облачность Т
(С)
Тd
(С)
f
(%)
Тe
(С)
Тes
(С)
Комфортность P
(гПа)
Po
(гПа)
Тmin
(С)
Tmax
(С)
R
(мм)
R24
(мм)
S
(см)
12 12.08 С 1 50 км 10/0
[Ac trans Ci sp]
+20.0 +11.3 57 +23 +23 комфорт 1008.1 997.4 +25.5
15 12.08 С 2 20 км 10/0
[Ac trans Ci sp]
+17.6 +11.0 65 +18 +18 1009.1 998.2
18 12.08 В 1 20 км 5/0
[Ac trans Ci sp]
+14.7 +11.1 79 +15 +15 1009.4 998.4
21 12.08 СВ 1 4000 м мгла 10/0
[Ac trans Cs]
+12.7 +11.8 94 +13 +13 1010.4 999.4
00 13.08 СВ 1 2000 м мгла 10/0
[Ci sp]
+16.9 +12.0 73 +18 +22 1010.4 999.5 +11.7
03 13.08 СВ 1 2000 м мгла ясно +22.1 +11.1 50 +24 +33 комфорт 1010.2 999.5
06 13.08 СВ 2 4000 м мгла ясно +25.1 +10.9 41 +26 +33 жарко 1009.4 998.8
09 13.08 С 1 4000 м мгла ясно +25.1 +10.9 41 +26 +29 жарко 1008.9 998.3
12 13.08 СВ 1 10 км 10/0
[Ci fib]
+19.1 +9.7 54 +21 +21 комфорт 1009.0 998.2 +25.6
15 13.08 СВ 1 10 км 10/0
[Ac trans Ci fib]
+13.1 +10.2 83 +13 +13 1009.5 998.5
18 13.08 СВ 1 10 км 10/0
[Ac trans Ci fib]
+14.2 +10.8 80 +15 +15 1009.3 998.3
21 13.08 СВ 1 4000 м 10/0
[As trans]
+11.1 +10.5 96 +11 +11 1009.9 998.8
00 14.08 СВ 2 2000 м мгла ?/? +15.5 +12.8 84 +15 +15 1010.0 999.0 +10.2
03 14.08 В 1 500 м мгла {туман} ?/? +18.6 +11.5 63 +20 +20 1010.0 999.2
06 14.08 СВ 1 500 м мгла {туман} ?/? +20.1 +13.3 65 +23 +23 комфорт 1010.0 999.2
09 14.08 С 1 1000 м мгла {туман} 10/0
[Ac und]
+21.2 +13.6 62 +24 +24 комфорт 1009.7 999.0
12 14.08 С 2 2000 м мгла 8/0
[Ac trans Ci sp]
+18.3 +12.8 70 +19 +19 1010.5 999.6 +21.2
15 14.08 С 2 2000 м мгла ?/? +15.0 +10.9 76 +15 +15 1011.3 1000.3
18 14.08 СВ 2 4000 м мгла 10/0
[Ac und]
+13.4 +9.9 79 +13 +13 1012.1 1001.1
21 14.08 С 3 4000 м мгла 4/0
[Ci sp]
+13.1 +11.0 87 +12 +12 1013.3 1002.3
00 15.08 С 3 20 км 10/0
[Cs]
+16.3 +11.9 75 +16 +19 1014.2 1003.2 +12.1
03 15.08 С 4 20 км 10/0
[Ci sp]
+19.0 +12.2 65 +20 +24 1014.5 1003.6
06 15.08 С 5-10
{12}
20 км 10/0
[Ci sp]
+21.3 +13.1 59 +24 +26 комфорт 1014.4 1003.6
09 15.08 СВ 6-11
{14}
50 км 10/0
[Ci sp]
+20.2 +11.8 58 +22 +22 комфорт 1014.7 1003.8
12 15.08 СВ 6-12
{14}
50 км 10/0
[Ci sp]
+17.4 +10.1 62 +17 +17 1016.1 1005.2 +22.2
15 15.08 С 7-14
{17}
20 км 6/0
[Ci sp]
+12.9 +10.0 83 +10 +10 1016.9 1005.8
18 15.08 СВ 5-10
{14}
20 км 5/0
[Ci sp]
+12.1 +9.1 82 +10 +10 1017.0 1006.4
21 15.08 СВ 5-12
{13}
50 км 10/10 330 м
[St]
+11.6 +9.1 85 +9 +9 1018.2 1007.0
00 16.08 СВ 5-12
{12}
50 км 10/10 300 м
[St]
+11.4 +9.4 88 +9 +9 1018.4 1007.2 +11.3
03 16.08 СВ 5-11
{12}
50 км 10/10 330 м
[St]
+11.8 +8.8 82 +9 +9 1019.2 1008.0
06 16.08 СВ 5-10
{11}
50 км 10/10 400 м
[St]
+13.1 +9.2 77 +11 +11 1022.3 1007.9
09 16.08 СВ 5-10
{10}
50 км 10/10 420 м
[St]
+12.1 +8.7 80 +10 +10 1018.7 1007.5
12 16.08 СВ 5-10
{10}
50 км 10/10 400 м
[St]
+11.4 +8.4 82 +9 +9 1018.5 1007.3 +13.3
15 16.08 СВ 5-11
{11}
50 км 6/0
[Ac trans]
+10.3 +8.5 89 +7 +7 1017.9 1006.7
18 16.08 С 5-10
{11}
50 км 5/0
[Ac trans]
+9.2 +8.0 92 +6 +6 1017.8 1006.6
21 16.08 СВ 3 50 км 10/10 210 м
[St]
+9.1 +7.6 90 +7 +7 1018.6 1007.3
00 17.08 С 2 50 км 10/10 150 м
[St]
+9.3 +8.1 92 +8 +8 1019.2 1007.9 +8.9
03 17.08 С 2 50 км 10/10 210 м
[St]
+10.0 +8.1 88 +8 +8 1019.2 1007.9
06 17.08 С 3 20 км 10/10 270 м
[St]
+10.6 +8.4 86 +9 +9 1019.1 1007.8
09 17.08 СЗ 2 20 км 10/10 420 м
[St]
+12.0 +8.4 79 +11 +11 1018.8 1007.6
12 17.08 СЗ 1 20 км 4/0
[Ci sp]
+9.8 +8.2 90 +9 +9 1018.8 1007.5 +12.0
15 17.08 С 2 20 км 5/0
[Ci sp]
+8.4 +7.3 93 +6 +6 1018.2 1006.9
18 17.08 С 2 20 км 4/0
[Ci sp]
+7.4 +6.7 95 +5 +5 1017.8 1006.5
21 17.08 С 2 20 км 1/1 300 м
[St]
+7.3 +6.9 97 +5 +5 1018.3 1007.0
00 18.08 СЗ 1 50 км 10/6 200 м
[St Cs]
+10.9 +9.1 89 +11 +12 1019.2 1008.0 +7.2
03 18.08 СВ 1 50 км 10/4 300 м
[St Ac As]
+12.7 +10.2 85 +13 +14 1019.1 1008.0
06 18.08 С 1 50 км 10/5 1000 м
[Sc Ac trans Ci sp]
+17.3 +11.2 67 +18 +20 1017.7 1006.8
09 18.08 С 1 50 км 10/0
[Ac trans Ci sp]
+17.8 +9.9 60 +19 +20 1016.9 1006.0
12 18.08 С 2 50 км 10/0
[Ac trans Cs]
+15.5 +11.6 78 +15 +15 1016.0 1005.0 +17.8
15 18.08 СВ 4 20 км 10/0
[Ac trans Cs]
+14.6 +11.2 80 +13 +13 1014.6 1003.5
18 18.08 СЗ 1 20 км гроза, ливневой дождь 10/5 600 м
[Cb cap As op]
+11.9 +9.9 88 +12 +12 1015.5 1004.3
21 18.08 штиль 0 50 км в посл. час гроза {ливн. осадки} 10/4 600 м
[Cb cap As op]
+11.7 +10.3 91 +11 +11 1015.9 1004.7
00 19.08 СВ 1 20 км в посл. час ливневой дождь 10/6 1500 м
[Sc As op]
+12.3 +11.9 97 +12 +12 1016.7 1005.5 +10.9 0.7
03 19.08 штиль 0 10 км мгла {дождь} 10/0
[As op]
+14.3 +13.4 94 +14 +16 1016.6 1005.5
06 19.08 штиль 0 10 км 10/4 1500 м
[Sc As op]
+16.0 +13.1 83 +16 +17 1016.5 1005.5

 

Местоположение метеостанции Жиганск (Якутия, Россия): широта 66.78 долгота 123.30 высота над уровнем моря 92 м.

В архиве по умолчанию представлена погода в Жиганске за последнюю неделю. Архивные данные за месяц целиком и за предыдущие месяцы, начиная с января 2011 года, Вы можете получить, выбрав интересующий диапазон дат из раскрывающегося списка и нажав кнопку "Ввод!".


*Определитесь, кто Вы:
робот инопланетянин человек

Внимание! Время в таблицах - всемирное. Для получения местного времени необходимо прибавить поправку, которая равна 9 ч.

Смотрите также архив погоды в соседних городах и на ближайших метеорологических станциях:

Погода в Бестяхской Звероферме (Якутия, Россия) (169 км)
Погода в Джарджане (Якутия, Россия) (219 км)
Погода в Эйке (Якутия, Россия) (275 км)
Погода в Сухане (Якутия, Россия) (294 км)
Погода в Сого-Хае (Якутия, Россия) (313 км)
Погода в Хатырык-Хомо (Якутия, Россия) (322 км)
Погода в Батагай-Алыте (Якутия, Россия) (324 км)
Погода в Вилюйске (Якутия, Россия) (344 км)
Погода в Себян-Кюеле (Якутия, Россия) (344 км)
Погода в Екюччю (Якутия, Россия) (364 км)

Пояснения к столбцам:

Ветер - указаны скорость ветра в м/с - средняя за 10 мин, порывы в срок и между сроками (в фигурных скобках) и направление, откуда дует ветер: С - северный, СВ - северо-восточный, В - восточный, ЮВ - юго-восточный, Ю - южный, ЮЗ - юго-западный, З - западный, СЗ - северо-западный.
Видимость - горизонтальная дальность видимости в метрах или километрах. При видимости от 1 до 10 км при отсутствии осадков обычно наблюдается дымка, при ухудшении видимости до 1 км и менее - туман. В сухую погоду видимость может ухудшаться дымом, пылью или мглою.
Явления - указаны атмосферные явления, наблюдавшиеся в срок или в последний час перед сроком; фигурными скобками обозначены явления, наблюдавшиеся между сроками (за 1-3 часа до срока); квадратными скобками обозначены град или гололедные отложения с указанием их диаметра в мм.
Облачность - указаны через наклонную черту общая и нижняя облачность в баллах и высота нижней границы облаков в метрах; квадратными скобками обозначены формы облаков: Ci - перистые, Cs - перисто-слоистые, Cc - перисто-кучевые, Ac - высококучевые, As - высокослоистые, Sc - слоисто-кучевые, Ns - слоисто-дождевые, Cu - кучевые, Cb - кучево-дождевые. Подробнее классификацию облаков см. в Атласе облаков (PDF).
T - Температура воздуха - температура, измеренная на высоте 2 м над землей.
Td - Температура точки росы - температура, при понижении до которой содержащийся в воздухе водяной пар достигнет насыщения.
f - Относительная влажность воздуха - влажноcть воздуха, измеренная на высоте 2 м над землей.
Te - Эффективная температура - температура, которую ощущает одетый по сезону человек в тени. Характеристика душности погоды. При расчете учитывается влияние влажности воздуха и скорости ветра на теплоощущения человека.
Tes - Эффективная температура на солнце - температура, которую ощущает человек, с поправкой на солнечный нагрев. Характеристика знойности погоды. Зависит от высоты солнца над горизонтом, облачности и скорости ветра. Ночью, в пасмурную погоду, а также при ветре 12 м/с и более поправка равна нулю.
P - Атмосферное давление - приведенное к уровню моря атмосферное давление.
Po - Атмосферное давление - измеренное на уровне метеостанции атмосферное давление.
Tmin - Минимальная температура - минимум температуры воздуха на высоте 2 м над землей.
Tmax - Максимальная температура - максимум температуры воздуха на высоте 2 м над землей.
R - Количество осадков - Количество выпавших осадков за период времени, мм. При наведении курсора мыши на число - период времени, за который выпало указанное количество осадков.
R24 - Количество осадков - Количество выпавших осадков за 24 часа, мм.
S - Снежный покров - Высота снежного покрова, см. При наведении курсора мыши на число - состояние снежного покрова и степень покрытия местности в баллах.